Location: Balaclava NSW 2575, Australia
(34.4510°S, 150.4953°E)
Time: 07:09:54
(UTC+10:00)

ISS - Pass Details

Date: 25 May 2021
Orbit: 417 x 422 km, 51.6° (Epoch: 17 June)

Event Time Altitude Azimuth Distance (km) Brightness Sun altitude
Exits shadow 06:06:03 12° 229° (SW) 1,427 -1.6 -9.5°
Maximum altitude 06:07:14 13° 207° (SSW) 1,341 -1.6 -9.3°
Drops below altitude 10° 06:09:00 10° 176° (S) 1,532 -1.1 -8.9°
Sets 06:12:01 0° 148° (SSE) 2,402 0.3 -8.3°
